ONEWEB-0239 (48802 NORAD) Tracking and Keplerian Element Data

This shows tracking and keplerian element data for the satellite.

Feedback or suggestion? Click here.




ElementValue
Catalog48802
NameONEWEB-0239
Epoch Orbit193
Epoch Day170.58334491
Epoch Year2021
RAAN268.8817
Inclination87.4041
Eccentricity0.0010138
Argument of Perigee181.2072
Mean Anonmoly176.5519
Mean Motion15.30244702
Decay Rate-0.00964193
L11 48802U 21045AM 21170.58334491 -.00964193 00000-0 -36115-1 0 9993
L22 48802 87.4041 268.8817 0010138 181.2072 176.5519 15.30244702 1937

Live tracking and technical data element details for ONEWEB-0239 (NORAD 48802). ONEWEB-0239 can be tracked NOW for your location showing map with azimuth and elevation plus other details from your city location.

Track the satellite on the map from your city or location and see movement details for azimuth, elevation, latitude, longitude, range, height, and movement on the map or in text.







IsCatalogInMostPopularTable: catalog: 48802, numindb: 7
Update: records affected: 1



GetName: 48802 ONEWEB-0239

Hit Count: updated at: Mon, 21 Jun 2021 03:02:39 GMT